Location: Guayaquil
(2.1667°S, 79.9000°W)
Time: 16:36:28
(UTC-05:00)

X-37B - Visible Passes

Search period start: 28 November 2021 00:00
Search period end: 08 December 2021 00:00
Orbit: 330 x 341 km, 45.0° (Epoch: 20 November)

Date Brightness Start Highest point End Pass type
(mag) Time Alt. Az. Time Alt. Az. Time Alt. Az.
29 Nov 2.3 18:40:21 10° WSW 18:42:47 25° NW 18:45:13 10° N visible
01 Dec 3.2 04:50:28 10° NNE 04:51:10 11° NE 04:51:52 10° ENE visible
02 Dec 0.6 05:09:49 20° NNW 05:11:32 59° NE 05:14:18 10° SE visible
03 Dec 2.1 05:29:53 11° W 05:31:54 20° SW 05:34:04 10° S visible
04 Dec 3.0 04:18:39 20° ESE 04:18:39 20° ESE 04:19:44 10° SE visible
05 Dec 2.8 04:38:36 15° SSW 04:38:36 15° SSW 04:39:32 10° S visible
